Location: Dittelspoint
(48.7198°N, 10.7214°E)
Time: 07:39:32
(UTC+00:00)

SL-4 R/B - Pass Details

Date: 09 April 2020
Orbit: 428 x 666 km, 51.6° (Epoch: 01 June)

Event Time Altitude Azimuth Distance (km) Brightness Sun altitude
Rises 19:02:33 0° 256° (WSW) 2,396 6.2 -10.5°
Reaches altitude 10° 19:04:40 10° 259° (W) 1,524 5.1 -10.8°
Maximum altitude 19:08:03 71° 344° (NNW) 460 1.7 -11.3°
Drops below altitude 10° 19:11:30 10° 69° (ENE) 1,550 3.9 -11.8°
Enters shadow 19:11:32 10° 69° (ENE) 1,565 3.9 -11.8°
